Location: Newark
(55.5030°N, 22.7200°E)
Time: 06:56:08
(UTC+00:00)

Transit 4A - All Passes

Search period start: 26 May 2020 00:00
Search period end: 05 June 2020 00:00
Orbit: 869 x 976 km, 66.8° (Epoch: 23 May)

Date Brightness Start Highest point End Pass type
(mag) Time Alt. Az. Time Alt. Az. Time Alt. Az.
26 May - 01:26:46 10° SSW 01:32:24 54° ESE 01:38:11 10° NE daylight
26 May - 03:13:12 10° WSW 03:18:54 51° NW 03:24:45 10° NE daylight
26 May - 05:01:25 10° WNW 05:06:32 29° N 05:11:47 10° NE daylight
26 May - 06:49:08 10° NW 06:54:32 33° NNE 07:00:03 10° E daylight
26 May - 08:35:47 10° NW 08:41:50 71° NE 08:48:03 10° SE daylight
26 May - 10:22:28 10° NW 10:27:55 35° WSW 10:33:28 10° S daylight
26 May - 23:52:34 10° SE 23:56:17 18° ESE 00:00:03 10° ENE visible
27 May - 01:35:51 10° SSW 01:41:39 71° SE 01:47:36 10° NE daylight
27 May - 03:22:51 10° W 03:28:26 42° NNW 03:34:09 10° NE daylight
27 May - 05:11:09 10° WNW 05:16:14 28° N 05:21:26 10° NE daylight
27 May - 06:58:36 10° NW 07:04:09 37° NNE 07:09:51 10° E daylight
27 May - 08:45:08 10° NW 08:51:14 88° NE 08:57:29 10° SE daylight
27 May - 10:32:04 10° WNW 10:37:00 26° WSW 10:42:02 10° SSW daylight
28 May - 00:00:43 10° SSE 00:05:17 24° ESE 00:09:56 10° ENE visible
28 May - 01:45:06 10° SW 01:50:58 89° NW 01:56:59 10° NE daylight
28 May - 03:32:35 10° W 03:38:01 37° NNW 03:43:35 10° NE daylight
28 May - 05:20:50 10° NW 05:25:57 28° N 05:31:10 10° ENE daylight
28 May - 07:08:01 10° NW 07:13:45 43° NNE 07:19:37 10° E daylight
28 May - 08:54:29 10° NW 09:00:33 73° SW 09:06:46 10° SSE daylight
28 May - 10:41:51 10° WNW 10:46:02 19° WSW 10:50:17 10° SSW daylight
29 May - 00:09:13 10° S 00:14:21 33° ESE 00:19:35 10° NE visible
29 May - 01:54:30 10° SW 02:00:20 72° NW 02:06:21 10° NE daylight
29 May - 03:42:21 10° W 03:47:39 33° NNW 03:53:04 10° NE daylight
29 May - 05:30:27 10° NW 05:35:38 29° N 05:40:56 10° ENE daylight
29 May - 07:17:23 10° NW 07:23:17 51° NE 07:29:19 10° ESE daylight
29 May - 09:03:53 10° NW 09:09:49 56° WSW 09:15:54 10° SSE daylight
29 May - 10:52:04 10° WNW 10:55:00 14° WSW 10:57:57 10° SW daylight
30 May - 00:18:00 10° S 00:23:29 45° ESE 00:29:07 10° NE visible
30 May - 02:04:00 10° WSW 02:09:47 57° NW 02:15:43 10° NE daylight
30 May - 03:52:08 10° WNW 03:57:18 30° NNW 04:02:37 10° NE daylight
30 May - 05:40:01 10° NW 05:45:19 31° NNE 05:50:45 10° ENE daylight
30 May - 07:26:45 10° NW 07:32:47 62° NE 07:38:56 10° ESE daylight
30 May - 09:13:20 10° NW 09:19:01 42° WSW 09:24:51 10° S daylight
30 May - 22:44:37 10° SE 22:47:32 14° ESE 22:50:28 10° ENE visible
31 May - 00:26:58 10° SSW 00:32:41 60° SE 00:38:33 10° NE visible
31 May - 02:13:37 10° WSW 02:19:17 47° NNW 02:25:07 10° NE daylight
31 May - 04:01:53 10° WNW 04:07:00 29° N 04:12:14 10° NE daylight
31 May - 05:49:30 10° NW 05:54:58 34° NNE 06:00:34 10° E daylight
31 May - 07:36:05 10° NW 07:42:12 77° NE 07:48:27 10° SE daylight
31 May - 09:22:51 10° NW 09:28:10 32° WSW 09:33:34 10° S daylight
31 May - 22:52:24 10° SSE 22:56:29 20° ESE 23:00:38 10° ENE visible
01 Jun - 00:36:07 10° SW 00:41:57 78° SE 00:47:58 10° NE visible
01 Jun - 02:23:18 10° W 02:28:50 40° NNW 02:34:31 10° NE daylight
01 Jun - 04:11:36 10° WNW 04:16:41 28° N 04:21:55 10° ENE daylight
01 Jun - 05:58:57 10° NW 06:04:35 39° NNE 06:10:22 10° E daylight
01 Jun - 07:45:27 10° NW 07:51:34 85° SW 07:57:49 10° SE daylight
01 Jun - 09:32:31 10° WNW 09:37:15 24° WSW 09:42:02 10° SSW daylight
01 Jun - 23:00:42 10° SSE 23:05:30 27° ESE 23:10:25 10° NE visible
02 Jun - 00:45:25 10° SW 00:51:18 83° NW 00:57:20 10° NE visible
02 Jun - 02:33:03 10° W 02:38:26 35° NNW 02:43:58 10° NE daylight
02 Jun - 04:21:15 10° NW 04:26:24 29° N 04:31:40 10° ENE daylight
02 Jun - 06:08:21 10° NW 06:14:09 46° NNE 06:20:07 10° ESE daylight
02 Jun - 07:54:49 10° NW 08:00:52 67° SW 08:07:03 10° SSE daylight
02 Jun - 09:42:25 10° WNW 09:46:15 17° WSW 09:50:07 10° SW daylight
02 Jun - 23:09:18 10° S 23:14:36 37° ESE 23:20:00 10° NE visible
03 Jun - 00:54:51 10° WSW 01:00:42 66° NW 01:06:42 10° NE visible
03 Jun - 02:42:49 10° WNW 02:48:05 32° NNW 02:53:29 10° NE daylight
03 Jun - 04:30:51 10° NW 04:36:05 30° N 04:41:27 10° ENE daylight
03 Jun - 06:17:42 10° NW 06:23:40 55° NE 06:29:46 10° ESE daylight
03 Jun - 08:04:13 10° NW 08:10:07 51° WSW 08:16:08 10° SSE daylight
03 Jun - 09:52:57 10° W 09:55:11 12° W 09:57:26 10° WSW daylight
03 Jun - 21:37:18 10° ESE 21:38:48 11° E 21:40:19 10° E visible
03 Jun - 23:18:10 10° SSW 23:23:45 50° ESE 23:29:29 10° NE visible
04 Jun - 01:04:24 10° WSW 01:10:09 53° NW 01:16:05 10° NE daylight
04 Jun - 02:52:36 10° WNW 02:57:45 30° N 03:03:03 10° NE daylight
04 Jun - 04:40:23 10° NW 04:45:46 32° NNE 04:51:16 10° E daylight
04 Jun - 06:27:04 10° NW 06:33:08 67° NE 06:39:22 10° SE daylight
04 Jun - 08:13:42 10° NW 08:19:18 38° WSW 08:25:00 10° S daylight
04 Jun - 21:44:17 10° SE 21:47:42 16° ESE 21:51:10 10° ENE visible
04 Jun - 23:27:12 10° SSW 23:32:59 66° SE 23:38:55 10° NE visible
